Location: Boussac
(44.2782°N, 2.3665°E)
Time: 12:30:11
(UTC+00:00)

Cosmos 2026 Rocket - Pass Details

Date: 15 May 2026
Orbit: 939 x 999 km, 82.9° (Epoch: 8 June)

Event Time Altitude Azimuth Distance (km) Brightness Sun altitude
Rises 22:30:57 0° 348° (NNW) 3,730 8.4 -24.3°
Reaches altitude 10° 22:33:31 10° 345° (NNW) 2,778 7.5 -24.5°
Maximum altitude 22:39:46 60° 268° (W) 1,133 4.3 -24.8°
Enters shadow 22:41:40 43° 212° (SSW) 1,370 4.4 -24.9°
